Weather in Bolshaya Kudara

Russia / Republic of Buryatia     50°12′06″N   107°02′23″E
temp.,
°C
wind,
m/s
gust,
m/s
humid.,
%
clouds,
%
prec.,
mm/h
press.,
hPa
HPBL,
m
28 february, sun
sun2823:00−19se2281100 0.0 103720
02:00−21se228495 0.0 103820
05:00−24se018762 0.0 103820
08:00−25s118843 0.0 104120
11:00−18sw117953 0.0 1040250
14:00−15w117534 0.0 1038375
17:00−15wsw11788 0.0 1038228
20:00−20sse22864 0.0 104020
1 march, mon
mon123:00−21sse238724 0.0 104221
02:00−22sse228957 0.0 104020
05:00−24sse22887 0.0 103920
08:00−25sse22864 0.0 103820
11:00−17sse23720 0.0 1034318
14:00−12se23650 0.0 1029480
17:00−12ssw01760 0.0 1026191
20:00−18se22820 0.0 102720
2 march, tue
tue223:00−16se238067 0.0 102435
02:00−16se227983 0.0 102021
05:00−18sse1178100 0.0 101820
08:00−17sse2275100 0.0 101720
11:00−11se2467100 0.0 1014259
14:00−5sse2364100 0.0 1011456
17:00−5n117696 0.0 101087
20:00−9ese118398 0.0 101221
3 march, wed
wed323:00−12nnw239698 0.1 101323
02:00−14wsw119998 0.2 101420
05:00−15e019993 0.1 101520
08:00−16wsw009895 0.1 101620
11:00−11nw1187100 0.1 1015279
14:00−7nnw2377100 0.1 1013604
17:00−8n4677100 0.0 1014455
20:00−13n3487100 0.0 101667
4 march, thu
thu423:00−14nnw259699 0.3 1019194
02:00−15nnw3695100 1.1 1020310
05:00−17nnw3492100 0.1 1022117
08:00−18nnw3592100 0.1 1026229
11:00−16nnw4687100 0.1 1028428
14:00−14nnw5667100 0.1 1029812
17:00−14nnw357359 0.0 1031586
20:00−21nne228429 0.0 103520